CSZ263 ZGSZ-RKPC

Flight info

Callsign CSZ263
Flight time 2h 33m
Altitude 35100
Route IDUMA W41 ISLOM G471 PLT A599 ELNEX G204 MULOV V73 SUPAR B221 NINAS G327 LAMEN A593 SADLI Y590 ELGEP B596 SOSDO
Aircraft A321/M-SDE1FGHILORVWXY/HB1

Departure

Time 2026-04-26 10:13
Airport Shenzhen Bao'an International Airport (ZGSZ)

Arrival

Time 2026-04-26 12:47
Airport Jeju International Airport (RKPC)
Time Latitude Longitude Altitude Speed Heading
2026-04-26 10:06 22.63329 113.80829 22 ft 2 kts 334°
2026-04-26 10:06 22.63316 113.80836 22 ft 2 kts 333°
2026-04-26 10:06 22.63303 113.80843 22 ft 2 kts 334°
2026-04-26 10:06 22.63290 113.80850 22 ft 2 kts 334°
2026-04-26 10:07 22.63275 113.80851 22 ft 2 kts 20°
2026-04-26 10:07 22.63263 113.80842 22 ft 1 kts 56°
2026-04-26 10:07 22.63260 113.80836 22 ft 1 kts 64°
2026-04-26 10:07 22.63259 113.80834 22 ft 0 kts 62°
2026-04-26 10:09 22.63262 113.80841 22 ft 7 kts 62°
2026-04-26 10:09 22.63312 113.80948 22 ft 20 kts 64°
2026-04-26 10:09 22.63373 113.81081 22 ft 20 kts 54°
2026-04-26 10:09 22.63481 113.81089 22 ft 21 kts 334°
2026-04-26 10:10 22.63695 113.80973 22 ft 39 kts 335°
2026-04-26 10:10 22.63932 113.80848 22 ft 37 kts 328°
2026-04-26 10:10 22.64152 113.80743 22 ft 34 kts 349°
2026-04-26 10:10 22.64321 113.80611 22 ft 29 kts 322°
2026-04-26 10:11 22.64486 113.80545 22 ft 25 kts 332°
2026-04-26 10:11 22.64636 113.80458 22 ft 24 kts 332°
2026-04-26 10:11 22.64781 113.80374 22 ft 24 kts 332°
2026-04-26 10:11 22.64926 113.80293 22 ft 23 kts 333°
2026-04-26 10:12 22.65069 113.80220 22 ft 23 kts 336°
2026-04-26 10:12 22.65151 113.80278 22 ft 13 kts 71°
2026-04-26 10:12 22.65162 113.80372 22 ft 12 kts 124°
2026-04-26 10:12 22.65042 113.80460 22 ft 29 kts 152°
2026-04-26 10:13 22.64699 113.80619 22 ft 92 kts 162°
2026-04-26 10:13 22.63895 113.81090 23 ft 155 kts 155°
2026-04-26 10:13 22.62809 113.81650 382 ft 178 kts 155°
2026-04-26 10:13 22.61720 113.82230 1105 ft 176 kts 156°
2026-04-26 10:14 22.60588 113.82845 1482 ft 189 kts 155°
2026-04-26 10:14 22.59372 113.83498 1797 ft 205 kts 156°
2026-04-26 10:14 22.58026 113.84216 2126 ft 224 kts 155°
2026-04-26 10:14 22.56784 113.85347 2479 ft 249 kts 122°
2026-04-26 10:15 22.56340 113.87169 2882 ft 270 kts 88°
2026-04-26 10:15 22.56977 113.89143 3403 ft 282 kts 51°
2026-04-26 10:15 22.58452 113.90484 4291 ft 279 kts 33°
2026-04-26 10:15 22.60018 113.91736 5090 ft 282 kts 38°
2026-04-26 10:16 22.61508 113.93134 5844 ft 286 kts 41°
2026-04-26 10:16 22.62952 113.94618 6613 ft 288 kts 43°
2026-04-26 10:16 22.64377 113.96150 7377 ft 290 kts 44°
2026-04-26 10:16 22.65792 113.97701 8121 ft 293 kts 44°
2026-04-26 10:17 22.67223 113.99285 8639 ft 294 kts 44°
2026-04-26 10:17 22.68646 114.00864 8831 ft 295 kts 43°
2026-04-26 10:17 22.70274 114.02160 8823 ft 290 kts 21°
2026-04-26 10:17 22.72220 114.02601 8837 ft 287 kts 356°
2026-04-26 10:18 22.74144 114.02157 8848 ft 285 kts 337°
2026-04-26 10:18 22.75965 114.01334 8842 ft 284 kts 335°
2026-04-26 10:18 22.77788 114.00486 8841 ft 284 kts 335°
2026-04-26 10:18 22.79603 113.99655 8840 ft 284 kts 336°
2026-04-26 10:19 22.81423 113.98833 8842 ft 285 kts 336°
2026-04-26 10:19 22.83271 113.98005 9040 ft 290 kts 336°
2026-04-26 10:19 22.85129 113.97175 9696 ft 292 kts 336°
2026-04-26 10:19 22.86982 113.96347 10446 ft 292 kts 336°
2026-04-26 10:20 22.88938 113.95642 10785 ft 307 kts 348°
2026-04-26 10:20 22.90379 113.95451 10981 ft 319 kts 357°
2026-04-26 10:20 22.93402 113.95763 11381 ft 340 kts
2026-04-26 10:20 22.95778 113.96191 11662 ft 356 kts
2026-04-26 10:21 22.98259 113.96645 11936 ft 371 kts
2026-04-26 10:21 23.00844 113.97111 12203 ft 386 kts
2026-04-26 10:21 23.03526 113.97588 12475 ft 400 kts
2026-04-26 10:21 23.06285 113.98074 12988 ft 406 kts
2026-04-26 10:22 23.09087 113.98566 13659 ft 409 kts
2026-04-26 10:22 23.11887 113.99054 14276 ft 412 kts
2026-04-26 10:22 23.14712 113.99545 14660 ft 415 kts
2026-04-26 10:22 23.17553 114.00037 14724 ft 415 kts
2026-04-26 10:23 23.20386 114.00530 14735 ft 415 kts
2026-04-26 10:23 23.23221 114.01025 14738 ft 415 kts
2026-04-26 10:23 23.26047 114.01590 14731 ft 416 kts 13°
2026-04-26 10:23 23.28797 114.02616 14734 ft 417 kts 23°
2026-04-26 10:24 23.31275 114.04062 14732 ft 418 kts 32°
2026-04-26 10:24 23.33618 114.05917 14790 ft 422 kts 37°
2026-04-26 10:24 23.35934 114.07898 15262 ft 427 kts 37°
2026-04-26 10:24 23.38253 114.09904 15967 ft 427 kts 37°
2026-04-26 10:25 23.40580 114.11912 16556 ft 430 kts 37°
2026-04-26 10:25 23.42936 114.13938 17091 ft 433 kts 37°
2026-04-26 10:25 23.45319 114.15982 17620 ft 437 kts 37°
2026-04-26 10:25 23.47704 114.18025 18137 ft 440 kts 37°
2026-04-26 10:26 23.50103 114.20079 18634 ft 443 kts 37°
2026-04-26 10:26 23.51904 114.21622 18990 ft 445 kts 37°
2026-04-26 10:26 23.54333 114.23701 19457 ft 448 kts 37°
2026-04-26 10:26 23.56780 114.25794 19919 ft 451 kts 37°
2026-04-26 10:27 23.59246 114.27904 20375 ft 454 kts 37°
2026-04-26 10:27 23.61741 114.30040 20820 ft 457 kts 37°
2026-04-26 10:27 23.64231 114.32173 21244 ft 459 kts 37°
2026-04-26 10:27 23.66750 114.34298 21655 ft 462 kts 36°
2026-04-26 10:28 23.69308 114.36401 22061 ft 464 kts 36°
2026-04-26 10:28 23.71884 114.38506 22449 ft 467 kts 36°
2026-04-26 10:28 23.74468 114.40617 22827 ft 470 kts 36°
2026-04-26 10:28 23.77189 114.42579 23165 ft 472 kts 25°
2026-04-26 10:29 23.80323 114.43615 23629 ft 471 kts 11°
2026-04-26 10:29 23.83509 114.44251 24257 ft 467 kts
2026-04-26 10:29 23.86681 114.44849 24772 ft 465 kts
2026-04-26 10:29 23.89848 114.45464 25225 ft 465 kts 10°
2026-04-26 10:30 23.93007 114.46101 25672 ft 464 kts 11°
2026-04-26 10:30 23.96155 114.46756 26122 ft 463 kts 11°
2026-04-26 10:30 23.99292 114.47422 26564 ft 462 kts 11°
2026-04-26 10:30 24.02449 114.48100 26995 ft 461 kts 11°
2026-04-26 10:31 24.05573 114.48776 27410 ft 460 kts 11°
2026-04-26 10:31 24.08687 114.49453 27811 ft 459 kts 11°
2026-04-26 10:31 24.11804 114.50131 28205 ft 458 kts 11°
2026-04-26 10:31 24.14907 114.50805 28590 ft 458 kts 11°
2026-04-26 10:32 24.18012 114.51481 28964 ft 457 kts 11°
2026-04-26 10:32 24.21102 114.52154 29327 ft 456 kts 11°
2026-04-26 10:32 24.24215 114.52834 29678 ft 455 kts 11°
2026-04-26 10:32 24.27301 114.53509 30020 ft 454 kts 11°
2026-04-26 10:33 24.30377 114.54183 30353 ft 454 kts 11°
2026-04-26 10:33 24.33448 114.54856 30674 ft 453 kts 11°
2026-04-26 10:33 24.36518 114.55529 30985 ft 452 kts 11°
2026-04-26 10:33 24.39581 114.56202 31286 ft 452 kts 11°
2026-04-26 10:34 24.42647 114.56875 31578 ft 451 kts 11°
2026-04-26 10:34 24.45724 114.57551 31869 ft 450 kts 11°
2026-04-26 10:34 24.48780 114.58223 32152 ft 450 kts 11°
2026-04-26 10:34 24.51824 114.58892 32426 ft 449 kts 11°
2026-04-26 10:35 24.54868 114.59562 32693 ft 448 kts 11°
2026-04-26 10:35 24.57908 114.60231 32953 ft 448 kts 11°
2026-04-26 10:35 24.60941 114.60899 33203 ft 447 kts 11°
2026-04-26 10:35 24.63973 114.61567 33451 ft 447 kts 11°
2026-04-26 10:36 24.67022 114.62239 33695 ft 446 kts 11°
2026-04-26 10:36 24.70044 114.62906 33930 ft 446 kts 11°
2026-04-26 10:36 24.73062 114.63572 34157 ft 445 kts 11°
2026-04-26 10:36 24.76081 114.64239 34380 ft 445 kts 11°
2026-04-26 10:37 24.79097 114.64905 34598 ft 444 kts 11°
2026-04-26 10:37 24.82109 114.65578 34809 ft 444 kts 12°
2026-04-26 10:37 24.85112 114.66258 35000 ft 443 kts 12°
2026-04-26 10:37 24.88137 114.66940 35004 ft 443 kts 12°
2026-04-26 10:38 24.94144 114.68283 35011 ft 443 kts 12°
2026-04-26 10:38 25.00148 114.69621 35012 ft 442 kts 11°
2026-04-26 10:39 25.06152 114.70959 35011 ft 444 kts 11°
2026-04-26 10:39 25.12238 114.72306 35010 ft 450 kts 10°
2026-04-26 10:40 25.18352 114.73654 35012 ft 451 kts 11°
2026-04-26 10:40 25.24467 114.75009 35013 ft 451 kts 11°
2026-04-26 10:41 25.30605 114.76374 35015 ft 451 kts 11°
2026-04-26 10:41 25.36719 114.77736 35016 ft 451 kts 11°
2026-04-26 10:42 25.42836 114.79100 35018 ft 451 kts 11°
2026-04-26 10:42 25.48950 114.80464 35019 ft 451 kts 11°
2026-04-26 10:43 25.55084 114.81832 35021 ft 451 kts 11°
2026-04-26 10:43 25.61201 114.83197 35022 ft 451 kts 11°
2026-04-26 10:44 25.67317 114.84562 35024 ft 451 kts 11°
2026-04-26 10:44 25.73435 114.86025 35024 ft 451 kts 15°
2026-04-26 10:45 25.79251 114.88535 35027 ft 453 kts 27°
2026-04-26 10:45 25.84492 114.92327 35027 ft 454 kts 39°
2026-04-26 10:46 25.89003 114.97179 35032 ft 454 kts 46°
2026-04-26 10:46 25.93286 115.02307 35037 ft 452 kts 46°
2026-04-26 10:47 25.97522 115.07373 35035 ft 448 kts 46°
2026-04-26 10:47 26.01736 115.12391 35029 ft 445 kts 46°
2026-04-26 10:48 26.05941 115.17396 35027 ft 443 kts 46°
2026-04-26 10:48 26.10118 115.22372 35031 ft 442 kts 47°
2026-04-26 10:49 26.14310 115.27347 35028 ft 442 kts 47°
2026-04-26 10:49 26.18496 115.32325 35021 ft 442 kts 47°
2026-04-26 10:50 26.21990 115.36494 35017 ft 442 kts 47°
2026-04-26 10:50 26.26861 115.42318 35018 ft 442 kts 47°
2026-04-26 10:51 26.33117 115.49816 35015 ft 443 kts 47°
2026-04-26 10:52 26.37299 115.54835 35008 ft 442 kts 47°
2026-04-26 10:52 26.41466 115.59843 35005 ft 443 kts 47°
2026-04-26 10:53 26.45634 115.64856 35005 ft 443 kts 47°
2026-04-26 10:53 26.49809 115.69909 35003 ft 443 kts 47°
2026-04-26 10:54 26.56040 115.77448 34993 ft 443 kts 47°
2026-04-26 10:54 26.60208 115.82486 34991 ft 443 kts 47°
2026-04-26 10:55 26.64412 115.87570 34992 ft 443 kts 47°
2026-04-26 10:55 26.68587 115.92625 34989 ft 443 kts 47°
2026-04-26 10:56 26.72770 115.97694 34981 ft 443 kts 47°
2026-04-26 10:56 26.76961 116.02777 34981 ft 443 kts 47°
2026-04-26 10:57 26.81164 116.07879 34991 ft 443 kts 47°
2026-04-26 10:57 26.85341 116.12952 35005 ft 443 kts 47°
2026-04-26 10:58 26.89516 116.18027 35021 ft 443 kts 47°
2026-04-26 10:58 26.93705 116.23116 35025 ft 445 kts 48°
2026-04-26 10:59 26.97918 116.28202 35020 ft 450 kts 48°
2026-04-26 10:59 27.02186 116.33356 35016 ft 456 kts 47°
2026-04-26 11:00 27.06496 116.38564 35020 ft 459 kts 47°
2026-04-26 11:00 27.10849 116.43814 35029 ft 459 kts 47°
2026-04-26 11:01 27.15219 116.49061 35035 ft 459 kts 47°
2026-04-26 11:01 27.19526 116.54268 35038 ft 459 kts 47°
2026-04-26 11:02 27.23904 116.59471 35038 ft 459 kts 46°
2026-04-26 11:02 27.28330 116.64598 35037 ft 459 kts 46°
2026-04-26 11:03 27.32748 116.69754 35038 ft 459 kts 46°
2026-04-26 11:03 27.37150 116.74903 35039 ft 459 kts 46°
2026-04-26 11:04 27.41579 116.80076 35038 ft 459 kts 46°
2026-04-26 11:04 27.45988 116.85226 35038 ft 459 kts 46°
2026-04-26 11:05 27.50393 116.90379 35047 ft 458 kts 46°
2026-04-26 11:05 27.54808 116.95528 35058 ft 457 kts 46°
2026-04-26 11:06 27.59210 117.00622 35054 ft 455 kts 46°
2026-04-26 11:06 27.63598 117.05699 35048 ft 454 kts 46°
2026-04-26 11:07 27.67971 117.10766 35050 ft 452 kts 46°
2026-04-26 11:07 27.72344 117.15838 35084 ft 451 kts 46°
2026-04-26 11:08 27.76697 117.20892 35106 ft 451 kts 46°
2026-04-26 11:08 27.81050 117.25952 35115 ft 451 kts 46°
2026-04-26 11:09 27.85414 117.31032 35117 ft 451 kts 46°
2026-04-26 11:09 27.89758 117.36095 35118 ft 451 kts 46°
2026-04-26 11:10 27.94101 117.41163 35118 ft 451 kts 46°
2026-04-26 11:10 27.98443 117.46236 35118 ft 451 kts 46°
2026-04-26 11:11 28.02800 117.51333 35118 ft 451 kts 46°
2026-04-26 11:11 28.07140 117.56416 35118 ft 451 kts 46°
2026-04-26 11:12 28.11494 117.61516 35118 ft 451 kts 46°
2026-04-26 11:12 28.15867 117.66620 35118 ft 451 kts 46°
2026-04-26 11:13 28.20192 117.71717 35118 ft 451 kts 46°
2026-04-26 11:13 28.24520 117.76818 35118 ft 451 kts 46°
2026-04-26 11:14 28.28848 117.81918 35118 ft 451 kts 46°
2026-04-26 11:14 28.33191 117.87039 35118 ft 451 kts 46°
2026-04-26 11:15 28.37520 117.92148 35118 ft 451 kts 46°
2026-04-26 11:15 28.41843 117.97263 35118 ft 451 kts 46°
2026-04-26 11:16 28.46101 118.02479 35118 ft 451 kts 47°
2026-04-26 11:16 28.50331 118.07710 35118 ft 451 kts 47°
2026-04-26 11:17 28.54563 118.12934 35118 ft 451 kts 47°
2026-04-26 11:17 28.58795 118.18156 35118 ft 451 kts 47°
2026-04-26 11:18 28.63046 118.23404 35118 ft 451 kts 47°
2026-04-26 11:18 28.67276 118.28633 35118 ft 451 kts 47°
2026-04-26 11:19 28.71503 118.33865 35118 ft 451 kts 47°
2026-04-26 11:19 28.75744 118.39119 35118 ft 451 kts 47°
2026-04-26 11:20 28.79260 118.43481 35118 ft 451 kts 47°
2026-04-26 11:20 28.84190 118.49605 35118 ft 451 kts 47°
2026-04-26 11:21 28.88415 118.54861 35118 ft 451 kts 47°
2026-04-26 11:21 28.92652 118.60138 35118 ft 451 kts 47°
2026-04-26 11:22 28.96866 118.65394 35118 ft 451 kts 48°
2026-04-26 11:22 29.01114 118.70721 35116 ft 456 kts 48°
2026-04-26 11:23 29.05422 118.76129 35116 ft 462 kts 48°
2026-04-26 11:23 29.09778 118.81597 35115 ft 469 kts 47°
2026-04-26 11:24 29.14212 118.87133 35079 ft 472 kts 46°
2026-04-26 11:24 29.18635 118.92650 35056 ft 471 kts 46°
2026-04-26 11:25 29.23052 118.98190 35046 ft 470 kts 46°
2026-04-26 11:25 29.27437 119.03705 35042 ft 469 kts 47°
2026-04-26 11:26 29.31807 119.09209 35041 ft 468 kts 47°
2026-04-26 11:26 29.36201 119.14756 35040 ft 468 kts 47°
2026-04-26 11:27 29.40559 119.20288 35040 ft 468 kts 47°
2026-04-26 11:27 29.44926 119.25837 35041 ft 469 kts 47°
2026-04-26 11:28 29.49285 119.31376 35040 ft 469 kts 47°
2026-04-26 11:28 29.53658 119.36941 35041 ft 468 kts 47°
2026-04-26 11:29 29.57948 119.42567 35038 ft 469 kts 52°
2026-04-26 11:29 29.61150 119.49078 35041 ft 470 kts 68°
2026-04-26 11:30 29.62593 119.55120 35041 ft 469 kts 82°
2026-04-26 11:30 29.62803 119.63831 35041 ft 468 kts 93°
2026-04-26 11:31 29.62580 119.71313 35040 ft 468 kts 93°
2026-04-26 11:31 29.62406 119.78779 35041 ft 468 kts 92°
2026-04-26 11:32 29.62244 119.86274 35041 ft 468 kts 92°
2026-04-26 11:32 29.62083 119.93735 35040 ft 468 kts 92°
2026-04-26 11:33 29.61920 120.01194 35041 ft 468 kts 92°
2026-04-26 11:33 29.61751 120.08696 35040 ft 468 kts 92°
2026-04-26 11:34 29.61663 120.16166 35039 ft 468 kts 88°
2026-04-26 11:34 29.62721 120.23503 35041 ft 470 kts 73°
2026-04-26 11:35 29.65265 120.30337 35041 ft 470 kts 59°
2026-04-26 11:35 29.68376 120.35453 35041 ft 469 kts 51°
2026-04-26 11:36 29.73070 120.42294 35041 ft 469 kts 51°
2026-04-26 11:36 29.77071 120.48178 35041 ft 469 kts 51°
2026-04-26 11:37 29.81059 120.54101 35041 ft 469 kts 51°
2026-04-26 11:37 29.85026 120.60016 35041 ft 469 kts 51°
2026-04-26 11:38 29.88991 120.65940 35040 ft 469 kts 52°
2026-04-26 11:38 29.92946 120.71882 35041 ft 469 kts 52°
2026-04-26 11:39 29.96921 120.77842 35042 ft 469 kts 52°
2026-04-26 11:39 30.00878 120.83773 35046 ft 469 kts 52°
2026-04-26 11:40 30.04791 120.89752 35049 ft 469 kts 53°
2026-04-26 11:40 30.08651 120.95810 35047 ft 469 kts 53°
2026-04-26 11:42 30.24109 121.19796 35076 ft 464 kts 53°
2026-04-26 11:43 30.27760 121.25899 35087 ft 464 kts 56°
2026-04-26 11:43 30.31269 121.32115 35092 ft 464 kts 57°
2026-04-26 11:44 30.34790 121.38355 35093 ft 464 kts 56°
2026-04-26 11:44 30.38310 121.44562 35094 ft 463 kts 56°
2026-04-26 11:45 30.41840 121.50763 35094 ft 464 kts 56°
2026-04-26 11:45 30.45369 121.56971 35093 ft 463 kts 56°
2026-04-26 11:46 30.48906 121.63204 35093 ft 464 kts 56°
2026-04-26 11:46 30.52425 121.69428 35094 ft 464 kts 57°
2026-04-26 11:47 30.55934 121.75654 35094 ft 464 kts 57°
2026-04-26 11:47 30.59462 121.81906 35093 ft 463 kts 57°
2026-04-26 11:48 30.62979 121.88141 35094 ft 464 kts 57°
2026-04-26 11:48 30.66499 121.94386 35093 ft 464 kts 57°
2026-04-26 11:49 30.70007 122.00620 35094 ft 464 kts 57°
2026-04-26 11:49 30.73533 122.06900 35094 ft 464 kts 57°
2026-04-26 11:50 30.77370 122.12915 35093 ft 464 kts 46°
2026-04-26 11:50 30.82239 122.17735 35094 ft 463 kts 32°
2026-04-26 11:51 30.87946 122.21126 35096 ft 461 kts 21°
2026-04-26 11:51 30.93620 122.24597 35090 ft 467 kts 36°
2026-04-26 11:52 30.96024 122.27153 35092 ft 472 kts 47°
2026-04-26 11:52 30.97301 122.29052 35092 ft 474 kts 55°
2026-04-26 11:52 30.99251 122.33632 35091 ft 478 kts 72°
2026-04-26 11:52 30.99955 122.37404 35090 ft 478 kts 85°
2026-04-26 11:53 31.00033 122.45124 35094 ft 477 kts 92°
2026-04-26 11:54 30.99935 122.56699 35094 ft 477 kts 91°
2026-04-26 11:54 30.99933 122.64397 35094 ft 477 kts 91°
2026-04-26 11:55 30.99934 122.72152 35051 ft 478 kts 91°
2026-04-26 11:55 30.99943 122.79853 34999 ft 477 kts 91°
2026-04-26 11:56 30.99947 122.87568 34995 ft 477 kts 91°
2026-04-26 11:56 31.00466 122.95286 34994 ft 479 kts 80°
2026-04-26 11:57 31.02353 123.02695 34995 ft 480 kts 66°
2026-04-26 11:57 31.05571 123.09473 34996 ft 481 kts 53°
2026-04-26 11:58 31.09458 123.15757 34994 ft 480 kts 52°
2026-04-26 11:58 31.13397 123.22035 34993 ft 480 kts 52°
2026-04-26 11:59 31.17285 123.28319 34994 ft 480 kts 52°
2026-04-26 11:59 31.21152 123.34635 34994 ft 480 kts 52°
2026-04-26 12:00 31.25019 123.40975 34993 ft 480 kts 52°
2026-04-26 12:00 31.28870 123.47295 34993 ft 480 kts 52°
2026-04-26 12:01 31.32719 123.53628 34994 ft 480 kts 52°
2026-04-26 12:01 31.36576 123.59953 34993 ft 480 kts 52°
2026-04-26 12:02 31.40460 123.66303 34992 ft 480 kts 53°
2026-04-26 12:02 31.44308 123.72634 34993 ft 480 kts 53°
2026-04-26 12:03 31.48161 123.78967 34994 ft 480 kts 52°
2026-04-26 12:03 31.52033 123.85323 34994 ft 480 kts 52°
2026-04-26 12:04 31.55863 123.91647 34993 ft 480 kts 54°
2026-04-26 12:04 31.59300 123.98367 34994 ft 482 kts 62°
2026-04-26 12:05 31.61981 124.05551 34993 ft 483 kts 69°
2026-04-26 12:05 31.63909 124.13129 34860 ft 485 kts 75°
2026-04-26 12:05 31.64749 124.16949 34592 ft 481 kts 75°
2026-04-26 12:06 31.65573 124.20730 34008 ft 480 kts 75°
2026-04-26 12:06 31.66401 124.24508 33285 ft 482 kts 75°
2026-04-26 12:06 31.67240 124.28315 32999 ft 484 kts 75°
2026-04-26 12:07 31.68938 124.36002 32994 ft 486 kts 75°
2026-04-26 12:07 31.70629 124.43649 32994 ft 486 kts 75°
2026-04-26 12:08 31.72322 124.51325 32994 ft 486 kts 75°
2026-04-26 12:08 31.74003 124.58969 32993 ft 486 kts 75°
2026-04-26 12:09 31.75690 124.66660 32992 ft 486 kts 76°
2026-04-26 12:09 31.77362 124.74326 32993 ft 486 kts 76°
2026-04-26 12:10 31.79033 124.81981 32994 ft 486 kts 75°
2026-04-26 12:10 31.80703 124.89682 32994 ft 485 kts 76°
2026-04-26 12:11 31.81807 124.97483 32993 ft 484 kts 85°
2026-04-26 12:11 31.81825 125.05363 32993 ft 484 kts 95°
2026-04-26 12:12 31.80824 125.13170 32993 ft 483 kts 102°
2026-04-26 12:12 31.79530 125.20885 32993 ft 483 kts 102°
2026-04-26 12:13 31.78246 125.28584 32991 ft 483 kts 102°
2026-04-26 12:13 31.77608 125.32445 32798 ft 483 kts 101°
2026-04-26 12:13 31.76974 125.36300 32599 ft 483 kts 102°
2026-04-26 12:13 31.76333 125.40193 32399 ft 484 kts 101°
2026-04-26 12:14 31.75696 125.44064 32201 ft 483 kts 101°
2026-04-26 12:14 31.75062 125.47919 32002 ft 484 kts 101°
2026-04-26 12:14 31.74421 125.51790 31802 ft 484 kts 102°
2026-04-26 12:14 31.73775 125.55675 31603 ft 484 kts 102°
2026-04-26 12:15 31.73187 125.59561 31404 ft 485 kts 98°
2026-04-26 12:15 31.72871 125.63521 31204 ft 485 kts 92°
2026-04-26 12:15 31.72878 125.67461 31013 ft 486 kts 87°
2026-04-26 12:16 31.73872 125.75271 30997 ft 485 kts 76°
2026-04-26 12:16 31.74722 125.79101 30889 ft 480 kts 74°
2026-04-26 12:16 31.75600 125.82849 30690 ft 473 kts 74°
2026-04-26 12:16 31.76461 125.86572 30492 ft 474 kts 74°
2026-04-26 12:17 31.77615 125.90218 30276 ft 472 kts 60°
2026-04-26 12:17 31.79539 125.93301 30080 ft 468 kts 42°
2026-04-26 12:17 31.82108 125.95576 29886 ft 463 kts 25°
2026-04-26 12:17 31.85043 125.97018 29701 ft 460 kts 17°
2026-04-26 12:18 31.88063 125.98242 29499 ft 460 kts 15°
2026-04-26 12:18 31.91094 125.99445 29301 ft 460 kts 15°
2026-04-26 12:18 31.94122 126.00669 29102 ft 461 kts 16°
2026-04-26 12:18 31.97158 126.01923 28901 ft 461 kts 16°
2026-04-26 12:19 32.00174 126.03187 28701 ft 462 kts 17°
2026-04-26 12:19 32.03191 126.04462 28503 ft 463 kts 17°
2026-04-26 12:19 32.06228 126.05750 28301 ft 463 kts 17°
2026-04-26 12:19 32.09239 126.07032 28103 ft 463 kts 17°
2026-04-26 12:20 32.12274 126.08322 27903 ft 464 kts 17°
2026-04-26 12:20 32.15304 126.09605 27704 ft 464 kts 17°
2026-04-26 12:20 32.18358 126.10898 27503 ft 465 kts 17°
2026-04-26 12:20 32.21406 126.12190 27305 ft 465 kts 17°
2026-04-26 12:21 32.24439 126.13476 27103 ft 462 kts 17°
2026-04-26 12:21 32.26733 126.14451 27001 ft 457 kts 17°
2026-04-26 12:21 32.29661 126.15697 26997 ft 458 kts 17°
2026-04-26 12:21 32.32678 126.16979 26843 ft 459 kts 17°
2026-04-26 12:22 32.35658 126.18247 26512 ft 455 kts 17°
2026-04-26 12:22 32.38633 126.19513 26184 ft 453 kts 17°
2026-04-26 12:22 32.41585 126.20770 25860 ft 451 kts 17°
2026-04-26 12:22 32.44513 126.22016 25533 ft 448 kts 17°
2026-04-26 12:23 32.47429 126.23258 25206 ft 446 kts 17°
2026-04-26 12:23 32.50333 126.24498 24881 ft 444 kts 17°
2026-04-26 12:23 32.53223 126.25733 24556 ft 442 kts 17°
2026-04-26 12:23 32.56101 126.26967 24231 ft 440 kts 17°
2026-04-26 12:24 32.58954 126.28193 23908 ft 438 kts 17°
2026-04-26 12:24 32.61846 126.29436 23578 ft 436 kts 17°
2026-04-26 12:24 32.64670 126.30650 23254 ft 434 kts 17°
2026-04-26 12:25 32.69385 126.32680 22717 ft 430 kts 17°
2026-04-26 12:25 32.71657 126.33659 22462 ft 429 kts 18°
2026-04-26 12:25 32.74371 126.34830 22150 ft 427 kts 18°
2026-04-26 12:25 32.77173 126.36038 21823 ft 425 kts 18°
2026-04-26 12:26 32.79932 126.37225 21498 ft 423 kts 18°
2026-04-26 12:26 32.82646 126.38392 21179 ft 421 kts 18°
2026-04-26 12:26 32.85394 126.39575 20864 ft 419 kts 18°
2026-04-26 12:26 32.88148 126.40761 20368 ft 416 kts 18°
2026-04-26 12:27 32.90841 126.41922 19891 ft 413 kts 18°
2026-04-26 12:27 32.93513 126.43076 19411 ft 410 kts 18°
2026-04-26 12:27 32.96185 126.44232 18930 ft 407 kts 18°
2026-04-26 12:27 32.98793 126.45448 18453 ft 405 kts 22°
2026-04-26 12:28 33.01295 126.46923 17978 ft 403 kts 27°
2026-04-26 12:28 33.03644 126.48632 17511 ft 401 kts 32°
2026-04-26 12:28 33.05921 126.50440 17044 ft 398 kts 33°
2026-04-26 12:28 33.08196 126.52278 16569 ft 395 kts 33°
2026-04-26 12:29 33.10462 126.54104 16093 ft 391 kts 33°
2026-04-26 12:29 33.12723 126.55910 15615 ft 387 kts 33°
2026-04-26 12:29 33.17122 126.59413 15004 ft 369 kts 33°
2026-04-26 12:30 33.19201 126.61073 14995 ft 357 kts 33°
2026-04-26 12:30 33.21230 126.62696 14787 ft 349 kts 33°
2026-04-26 12:30 33.23208 126.64278 14515 ft 342 kts 33°
2026-04-26 12:31 33.27476 126.66300 13953 ft 326 kts
2026-04-26 12:31 33.29685 126.65981 13692 ft 323 kts 343°
2026-04-26 12:31 33.31816 126.65165 13423 ft 321 kts 340°
2026-04-26 12:31 33.33918 126.64291 13150 ft 319 kts 340°
2026-04-26 12:32 33.36012 126.63453 12876 ft 318 kts 343°
2026-04-26 12:32 33.38188 126.62940 12597 ft 317 kts 354°
2026-04-26 12:32 33.42551 126.63243 12050 ft 311 kts
2026-04-26 12:33 33.44657 126.63678 11773 ft 305 kts 10°
2026-04-26 12:33 33.46718 126.64110 11497 ft 300 kts
2026-04-26 12:33 33.48757 126.64529 11222 ft 298 kts
2026-04-26 12:33 33.50777 126.64939 10956 ft 294 kts
2026-04-26 12:34 33.52733 126.65333 10684 ft 289 kts
2026-04-26 12:34 33.54735 126.65735 10403 ft 284 kts
2026-04-26 12:34 33.56684 126.66128 10125 ft 282 kts
2026-04-26 12:34 33.58607 126.66515 9850 ft 281 kts
2026-04-26 12:35 33.60532 126.66901 9576 ft 280 kts
2026-04-26 12:35 33.62438 126.67282 9302 ft 279 kts
2026-04-26 12:35 33.64340 126.67663 9031 ft 277 kts
2026-04-26 12:35 33.66244 126.68046 8780 ft 277 kts
2026-04-26 12:36 33.68137 126.68426 8529 ft 276 kts
2026-04-26 12:36 33.70039 126.68806 8277 ft 275 kts
2026-04-26 12:36 33.71893 126.69178 8030 ft 274 kts
2026-04-26 12:36 33.73697 126.69898 7759 ft 273 kts 33°
2026-04-26 12:37 33.75049 126.71450 7517 ft 267 kts 51°
2026-04-26 12:37 33.76166 126.73172 7267 ft 262 kts 53°
2026-04-26 12:37 33.77274 126.74926 7023 ft 257 kts 53°
2026-04-26 12:37 33.78336 126.76637 6695 ft 256 kts 57°
2026-04-26 12:38 33.78967 126.78633 6339 ft 254 kts 81°
2026-04-26 12:38 33.79231 126.80723 5992 ft 255 kts 83°
2026-04-26 12:38 33.79226 126.82830 5622 ft 255 kts 106°
2026-04-26 12:38 33.78392 126.84673 5273 ft 252 kts 136°
2026-04-26 12:39 33.77047 126.85975 4981 ft 248 kts 154°
2026-04-26 12:39 33.75424 126.86521 4707 ft 244 kts 179°
2026-04-26 12:39 33.73801 126.86068 4360 ft 242 kts 211°
2026-04-26 12:39 33.72510 126.84785 4037 ft 241 kts 224°
2026-04-26 12:40 33.71315 126.83376 3690 ft 243 kts 224°
2026-04-26 12:40 33.70102 126.81962 3343 ft 244 kts 224°
2026-04-26 12:40 33.68878 126.80557 3031 ft 243 kts 224°
2026-04-26 12:40 33.67689 126.79201 3005 ft 230 kts 224°
2026-04-26 12:41 33.66565 126.77926 2985 ft 216 kts 223°
2026-04-26 12:41 33.65511 126.76720 2996 ft 205 kts 226°
2026-04-26 12:41 33.64594 126.75393 3013 ft 205 kts 235°
2026-04-26 12:41 33.63836 126.73959 3000 ft 205 kts 238°
2026-04-26 12:42 33.63110 126.72528 2978 ft 190 kts 238°
2026-04-26 12:42 33.62444 126.71216 2984 ft 183 kts 239°
2026-04-26 12:42 33.61800 126.69886 2992 ft 185 kts 239°
2026-04-26 12:42 33.61149 126.68558 2994 ft 184 kts 239°
2026-04-26 12:43 33.60487 126.67234 2994 ft 184 kts 238°
2026-04-26 12:43 33.59813 126.65905 2994 ft 184 kts 238°
2026-04-26 12:43 33.59144 126.64599 2938 ft 185 kts 238°
2026-04-26 12:43 33.58474 126.63296 2720 ft 184 kts 238°
2026-04-26 12:44 33.57813 126.62015 2476 ft 180 kts 238°
2026-04-26 12:44 33.57170 126.60771 2227 ft 168 kts 238°
2026-04-26 12:44 33.56577 126.59624 2031 ft 160 kts 238°
2026-04-26 12:44 33.55992 126.58494 1820 ft 159 kts 238°
2026-04-26 12:45 33.55432 126.57411 1599 ft 150 kts 238°
2026-04-26 12:45 33.54887 126.56354 1411 ft 151 kts 238°
2026-04-26 12:45 33.54338 126.55291 1215 ft 150 kts 238°
2026-04-26 12:45 33.53793 126.54235 1019 ft 150 kts 238°
2026-04-26 12:46 33.53250 126.53182 820 ft 147 kts 238°
2026-04-26 12:46 33.52732 126.52177 627 ft 141 kts 238°
2026-04-26 12:46 33.52217 126.51182 456 ft 141 kts 238°
2026-04-26 12:46 33.51695 126.50183 249 ft 141 kts 238°
2026-04-26 12:47 33.51194 126.49198 128 ft 132 kts 239°
2026-04-26 12:47 33.50806 126.48441 127 ft 82 kts 238°
2026-04-26 12:47 33.50581 126.48051 127 ft 33 kts 229°
2026-04-26 12:47 33.50408 126.47926 127 ft 17 kts 157°
2026-04-26 12:48 33.50393 126.48007 127 ft 11 kts 64°
2026-04-26 12:48 33.50452 126.48119 127 ft 17 kts 58°
2026-04-26 12:48 33.50516 126.48249 127 ft 18 kts 61°
2026-04-26 12:48 33.50579 126.48382 127 ft 19 kts 56°
2026-04-26 12:49 33.50647 126.48515 127 ft 19 kts 60°
2026-04-26 12:49 33.50718 126.48650 127 ft 19 kts 49°
2026-04-26 12:49 33.50788 126.48786 127 ft 19 kts 63°
2026-04-26 12:49 33.50758 126.48869 127 ft 11 kts 147°
2026-04-26 12:50 33.50702 126.48930 127 ft 10 kts 104°
2026-04-26 12:50 33.50730 126.49002 127 ft 11 kts 45°
2026-04-26 12:50 33.50785 126.48998 127 ft 8 kts 330°
2026-04-26 12:50 33.50799 126.48987 127 ft 0 kts 329°